Weather Roundup
Issued by NWS

Home | Current Version | Previous Version | Text Only | Print | Product List | Glossary On
Versions: 1 2 3 4 5 6 7 8 9 10 11 12 13 14 15 16 17 18 19 20 21 22 23 24 25 26 27 28 29 30 31 32 33 34 35 36 37 38 39 40 41 42 43 44 45 46 47 48 49 50
972
NZUS93 KARX 211259
HRRWXR

CURRENT HOURLY OBSERVATIONS ACROSS
MUCH OF THE UPPER MISSISSIPPI VALLEY
NATIONAL WEATHER SERVICE LA CROSSE WI
800 AM CDT THU SEP 21 2017


...SOUTHEAST MINNESOTA...


CITY           SKY/WX    TMP DP  RH WIND       PRES   REMARKS
ROCHESTER      SUNNY     57  53  86 E8        30.00S
ROCHESTER/MAYO FAIR      57  53  86 CALM      29.99F
WINONA         CLOUDY    54  54 100 CALM      30.00F FOG
AUSTIN         SUNNY     57  54  88 SE3       29.97F
ALBERT LEA     CLEAR     57  54  88 E5        29.97F
DODGE CENTER   SUNNY     54  50  87 NE3       29.98F
PRESTON        CLOUDY    56  53  89 E5        30.00F
OWATONNA       SUNNY     55  52  88 E8        29.97F
FARIBAULT      CLEAR     52  52 100 CALM      29.98F
$$

...ELSEWHERE IN MINNESOTA...


CITY           SKY/WX    TMP DP  RH WIND       PRES   REMARKS
MINNEAPOLIS    CLEAR     57  50  77 E6        29.99F
INTNL FALLS    PTCLDY    48  43  82 SE6       29.98R
DULUTH         SUNNY     49  49 100 SE8       30.02S
RED WING       SUNNY     52  48  87 CALM      29.99S
REDWOOD FALLS  CLEAR     51  47  86 SE7       29.94S
MANKATO        CLEAR     57  51  80 E8        29.96F
WORTHINGTON    CLEAR     53  50  89 E8        29.93F
FAIRMONT       CLEAR     54  50  86 E3        29.95F
$$

...SOUTHWEST WISCONSIN...


CITY           SKY/WX    TMP DP  RH WIND       PRES   REMARKS
LA CROSSE      NOT AVBL
PRAIRIE DU CHI CLOUDY    67  65  94 CALM      29.97R FOG
BOSCOBEL       PTSUNNY   69  67  93 CALM      29.99R FOG
LONE ROCK      PTSUNNY   69  69 100 CALM      29.98S FOG
PLATTEVILLE    CLOUDY    66  66 100 CALM      30.00R
FORT MC COY    FOG       52  52 100 CALM      30.01F VSB<1/4
MAUSTON-NEW LI CLOUDY    62  62  98 CALM      30.00S FOG
VIROQUA        CLOUDY    63  63 100 NE5       30.00S
WIS DELLS      NOT AVBL
$$

...ELSEWHERE IN WISCONSIN...


CITY           SKY/WX    TMP DP  RH WIND       PRES   REMARKS
MILWAUKEE      CLOUDY    74  68  81 NE9       30.01R
MADISON        FOG       70  70 100 N5        30.00R VSB 1/4
GREEN BAY      CLOUDY    68  67  96 NE12      30.02S
EAU CLAIRE     NOT AVBL
BLACK RVR FLS  FOG       50  50 100 CALM      30.01R VSB 1/2
MEDFORD        SUNNY     52  52  99 E5        30.04R
WAUSAU         MOSUNNY   60  58  92 N3        30.03S
WIS RAPIDS     FOG       64  64 100 NE5       30.03S VSB 1/4
MARSHFIELD     PTSUNNY   60  56  86 NE9       30.02S
RICE LAKE        N/A     46  45  99 CALM      30.04S FOG
$$

...NORTHEAST IOWA...


CITY           SKY/WX    TMP DP  RH WIND       PRES   REMARKS
WATERLOO       CLOUDY    68  66  93 SE7       29.95R
DUBUQUE        CLOUDY    67  64  90 E5        29.98R
DECORAH        CLOUDY    61  57  88 NE7       29.98S
MASON CITY     CLOUDY    58  54  86 E5        29.97F
CHARLES CITY   NOT AVBL
OELWEIN        CLOUDY    66  66 100 E5        29.99R
$$

...ELSEWHERE IN IOWA...


CITY           SKY/WX    TMP DP  RH WIND       PRES   REMARKS
DES MOINES     CLOUDY    70  68  93 CALM      29.89F
IOWA CITY      CLOUDY    76  61  59 S14       29.98R
FORT DODGE     CLOUDY    58  56  93 E8        29.93S
MARSHALLTOWN   CLOUDY    66  66 100 SE5       29.94R
CEDAR RAPIDS   CLOUDY    71  64  78 S14G22    29.96R
$$

...NORTHERN ILLINOIS...


CITY           SKY/WX    TMP DP  RH WIND       PRES   REMARKS
CHICAGO-OHARE  CLOUDY    76  68  76 S6        29.99R
CHICAGO-MIDWAY CLOUDY    75  69  81 SW7       30.01R
MOLINE         CLOUDY    75  60  59 SW15      29.95F
ROCKFORD       CLOUDY    70  68  93 SE6       30.01R
PEORIA         CLOUDY    72  67  84 W5        30.03R
$$

NOTE: "FAIR" INDICATES FEW OR NO CLOUDS BELOW 12,000 FEET WITH NO
SIGNIFICANT WEATHER AND/OR OBSTRUCTIONS TO VISIBILITY. WIND
SPEEDS ARE IN MILES-PER-HOUR.




USA.gov is the U.S. government's official web portal to all federal, state and local government web resources and services.